Location: Treviso
(45.6669°N, 12.2430°E)
Time: 23:00:04
(UTC+01:00)

ISS - Pass Details

Date: 26 November 2023
Orbit: 415 x 417 km, 51.6° (Epoch: 06 December)

Event Time Altitude Azimuth Distance (km) Brightness Sun altitude
Rises 17:27:03 0° 278° (W) 2,358 1.3 -9.6°
Reaches altitude 10° 17:29:19 10° 290° (WNW) 1,496 -0.2 -10.0°
Maximum altitude 17:32:19 29° 353° (N) 791 -2.5 -10.5°
Enters shadow 17:34:31 15° 49° (NE) 1,223 -2.0 -10.9°
